Weather History for Toledo Metcalf, OH

Change the Weather History Date:

Saturday, June 7, 2014

  Actual Average (KTOL) Record (KTOL)
Temperature  
Mean Temperature 70 °F 67 °F  
Max Temperature 82 °F 78 °F 98 °F (1933)
Min Temperature 59 °F 56 °F 42 °F (1945)
Degree Days  
Heating Degree Days 0 2  
Month to date heating degree days 18  
Since 1 June heating degree days 18  
Since 1 July heating degree days 6128  
Cooling Degree Days 6 4  
Month to date cooling degree days 25  
Year to date cooling degree days 78  
Since 1 June cooling degree days 25  
Growing Degree Days 20 (Base 50)    
Moisture  
Dew Point 49 °F    
Average Humidity 47    
Maximum Humidity 67    
Minimum Humidity 29    
Precipitation  
Precipitation 0.00 in 0.13 in 1.39 in (1963)
Month to date precipitation 0.86  
Year to date precipitation 14.23  
Snow  
Snow 0.00 in 0.00 in - ()
Month to date snowfall 0.0  
Since 1 June snowfall 0.0  
Since 1 July snowfall 37.6  
Snow Depth -    
Sea Level Pressure  
Sea Level Pressure 29.97 in    
Wind  
Wind Speed 6 mph (ESE)    
Max Wind Speed 12 mph    
Max Gust Speed 18 mph    
Visibility 10 miles    
Events      
T = Trace of Precipitation, MM = Missing Value Source: NWS Daily Summary

Daily Weather History Graph

Daily Weather History Graph

Search for Another Location

Airport:

Trip Planner

Search our weather history database for the weather conditions in past years. The results will help you decide how hot, cold, wet, or windy it might be!

Date:

Astronomy

Jun. 07, 2014 Rise Set
Actual Time 6:00 AM EDT 9:05 PM EDT
Civil Twilight 5:26 AM EDT 9:39 PM EDT
Nautical Twilight 4:43 AM EDT 10:22 PM EDT
Astronomical Twilight 3:52 AM EDT 11:13 PM EDT
Moon 3:18 PM EDT (6/7) 2:25 AM EDT (6/7)
Length of Visible Light 16h 12m
Length of Day
15h 05m
Waxing Gibbous, 67% of the Moon is Illuminated
Jun 7
Waxing Gibbous
Jun 13
Full
Jun 19
Last Quarter
Jun 27
New
Jul 5
First Quarter

Hourly Weather History & Observations

Time (EDT) Temp. Dew Point Humidity Pressure Visibility Wind Dir Wind Speed Gust Speed Precip Events Conditions
12:53 AM 62.1 °F 46.9 °F 58% 30.01 in 10.0 mi SE 5.8 mph - N/A   Clear
1:53 AM 62.1 °F 46.9 °F 58% 30.01 in 10.0 mi SSE 4.6 mph - N/A   Clear
2:53 AM 60.1 °F 46.9 °F 62% 30.02 in 10.0 mi South 4.6 mph - N/A   Clear
3:53 AM 60.1 °F 46.9 °F 62% 30.02 in 10.0 mi South 3.5 mph - N/A   Clear
5:53 AM 59.0 °F 46.9 °F 64% 30.01 in 10.0 mi Calm Calm - N/A   Clear
6:53 AM 60.1 °F 48.9 °F 67% 30.04 in 10.0 mi Calm Calm - N/A   Clear
8:53 AM 69.1 °F 53.1 °F 57% 30.06 in 10.0 mi SSE 3.5 mph - N/A   Clear
9:53 AM 73.0 °F 52.0 °F 48% 30.05 in 10.0 mi Variable 3.5 mph - N/A   Clear
11:53 AM 79.0 °F 51.1 °F 38% 30.02 in 10.0 mi Variable 5.8 mph - N/A   Clear
12:53 PM 79.0 °F 48.9 °F 35% 30.01 in 10.0 mi South 4.6 mph - N/A   Partly Cloudy
1:53 PM 81.0 °F 48.9 °F 33% 29.99 in 10.0 mi Variable 6.9 mph - N/A   Clear
2:53 PM 82.9 °F 48.0 °F 29% 29.97 in 10.0 mi SSE 11.5 mph - N/A   Clear
3:53 PM 81.0 °F 50.0 °F 34% 29.94 in 10.0 mi ENE 6.9 mph - N/A   Partly Cloudy
4:53 PM 80.1 °F 50.0 °F 35% 29.94 in 10.0 mi ENE 11.5 mph - N/A   Clear
5:53 PM 80.1 °F 50.0 °F 35% 29.93 in 10.0 mi NE 9.2 mph 18.4 mph N/A   Clear
6:53 PM 78.1 °F 48.9 °F 36% 29.91 in 10.0 mi ENE 10.4 mph - N/A   Clear
7:53 PM 75.9 °F 51.1 °F 42% 29.91 in 10.0 mi East 6.9 mph - N/A   Clear
8:53 PM 72.0 °F 51.1 °F 48% 29.90 in 10.0 mi East 6.9 mph - N/A   Clear
9:53 PM 69.1 °F 50.0 °F 51% 29.89 in 10.0 mi ESE 9.2 mph - N/A   Clear
10:53 PM 69.1 °F 48.9 °F 49% 29.88 in 10.0 mi ESE 9.2 mph - N/A   Clear
11:53 PM 69.1 °F 48.0 °F 47% 29.88 in 10.0 mi ESE 10.4 mph - N/A   Clear